Location: A�t Mhand
(31.0288°N, 8.7728°W)
Time: 00:56:29
(UTC+00:00)

Daily predictions for brighter satellites

Satellite Brightness Start Highest point End
(mag) Time Altitude Azimuth Time Altitude Azimuth Time Altitude Azimuth
FALCON 9 R/B 3.7 04:24:54 29° ESE 04:24:54 29° ESE 04:26:33 10° ESE
Atlas Centaur 2 3.6 04:26:51 46° E 04:26:51 46° E 04:32:15 10° E
Haruka 4.1 04:45:09 50° E 04:45:09 50° E 04:52:30 10° E
Kakehashi 4.4 04:53:58 49° S 04:55:05 54° SSE 05:07:20 10° E
Cosmos 44 Rocket 4.4 04:59:26 45° E 04:59:26 45° E 05:03:29 10° SE
NOSS 3-2 (A) 3.7 05:00:27 54° ENE 05:00:27 54° ENE 05:05:13 10° NE
Cosmos 1937 Rocket 4.3 05:00:59 48° ESE 05:00:59 48° ESE 05:05:15 10° SSE
SL-16 R/B 2.8 05:07:09 10° S 05:12:37 54° ESE 05:18:08 10° NNE
NOSS 3-2 (C) 4.0 05:09:55 23° S 05:13:01 47° ESE 05:18:40 10° NE
USA 267 3.2 05:08:20 10° SE 05:14:51 79° NE 05:16:23 56° NNW
CZ-2C R/B 2.8 05:19:17 34° NE 05:19:17 34° NE 05:21:58 10° ENE
Cosmos 2278 Rocket 2.2 05:18:36 66° N 05:19:22 78° ENE 05:25:01 10° SSE
CENTAUR R/B 2.7 05:17:07 27° S 05:20:07 61° ESE 05:26:22 10° NE
Cosmos 2237 Rocket 4.2 05:24:59 15° N 05:24:59 15° N 05:25:56 10° N
ATLAS 5 CENTAUR R/B 3.7 05:25:47 22° NE 05:26:52 26° ENE 05:32:21 10° ESE
H-2A R/B 3.7 05:23:27 10° S 05:25:22 25° S 05:25:22 25° S
SL-24 R/B 4.5 05:25:52 10° SSE 05:29:46 60° ENE 05:31:05 40° NNE
OAO 2 Rocket 3.0 05:36:18 80° WNW 05:36:35 87° NNE 05:41:30 10° ESE
Lacrosse 4 Rocket 4.0 05:40:48 11° N 05:40:48 11° N 05:40:54 10° N
SEDSat Delta rocket 3.9 05:36:24 51° W 05:38:16 88° SSE 05:45:06 10° E
Cosmos 1241 Rocket 4.5 05:35:01 33° NNW 05:38:16 89° SW 05:44:43 10° SSE
Cosmos 1626 Rocket 4.0 05:37:41 15° N 05:41:19 63° E 05:45:42 10° SSE
Cosmos 1703 4.1 05:39:02 19° NNE 05:41:36 50° E 05:45:24 10° SSE
CSL-04 DEB 4.4 05:41:53 10° SSE 05:46:15 85° WSW 05:47:46 41° NNW
MOS 1 Rocket 4.1 05:48:49 10° SSE 05:53:38 52° ENE 05:58:12 10° N
USA 238 DEB 3.6 05:51:23 27° WSW 05:54:48 54° WNW 06:01:23 10° NNE
USA 238 3.6 05:51:23 27° WSW 05:54:54 55° WNW 06:01:30 10° NNE
deb Chang Zheng 4 3.3 05:51:14 10° N 05:55:27 75° WNW 05:59:39 10° SSW
SKYMED 2 3.6 05:51:49 10° SSE 05:56:09 77° ENE 06:00:29 10° N
SL-8 R/B 3.7 05:55:18 48° WNW 05:56:29 66° SW 06:01:14 10° SE
Cosmos 1689 Rocket 4.3 06:00:51 10° SE 06:03:19 25° ENE 06:05:46 10° NNE
Meteor 1-21 Rocket 4.4 06:01:47 10° NNW 06:07:25 53° W 06:13:06 10° SSW
BREEZE M DEB (TANK) 3.9 06:11:50 12° N 06:11:50 12° N 06:12:13 10° NNE
Atlas Centaur 2 3.0 06:09:26 25° W 06:14:05 74° SSW 06:22:29 10° ESE
Lacrosse 5 rocket 1.3 06:15:52 34° WNW 06:17:05 50° SW 06:20:36 10° SSE
Cosmos 2084 Rocket 4.5 06:13:58 10° NNW 06:18:16 48° ENE 06:22:41 10° SE
Cosmos 1340 2.9 06:16:49 22° NNW 06:18:54 44° W 06:22:29 10° SSW
Cosmos 2150 Rocket 4.2 06:16:58 10° NNW 06:22:22 80° ENE 06:27:48 10° SSE
SJ-7 4.3 06:18:25 10° N 06:22:30 81° WNW 06:26:31 10° SSW
YAOGAN 6 2.5 06:19:28 10° N 06:23:10 84° WNW 06:26:50 10° SSW
Cosmos 1602 Rocket 3.7 06:19:48 10° NNW 06:24:09 53° W 06:28:29 10° S
Cosmos 372 Rocket 4.3 06:20:34 13° NW 06:24:56 42° W 06:29:48 10° S
Cosmos 2279 Rocket 4.2 06:18:53 10° S 06:25:05 74° E 06:31:20 10° N
Cosmos 1328 3.8 06:23:52 10° NNW 06:27:40 52° W 06:31:28 10° S
Cosmos 1092 Rocket 3.9 06:21:35 10° NNW 06:27:42 69° W 06:33:51 10° S
Aurora 2 Rocket 3.9 06:25:29 15° WSW 06:28:26 34° S 06:33:31 10° ESE
CZ-4B R/B 2.4 06:26:32 10° SSW 06:29:27 26° W 06:30:32 22° WNW
CZ-4B DEB 4.4 06:28:08 10° NNE 06:33:43 80° ESE 06:39:15 10° S
PSLV R/B 3.8 06:30:02 10° N 06:34:05 76° WNW 06:38:10 10° SSW
OAO 1 Rocket 4.5 06:30:18 18° WNW 06:34:14 77° SSW 06:39:32 10° ESE
CZ-2C R/B 3.9 06:33:26 10° SE 06:38:18 41° ENE 06:43:16 10° N
Chandra Rocket (1) 2.1 06:35:11 15° W 06:38:37 47° SSW 06:41:06 10° ESE
Cosmos 2098 Rocket 3.1 06:34:01 10° N 06:39:04 89° WNW 06:42:59 10° S
Okean O Rocket 3.2 06:35:20 10° NNE 06:39:24 39° E 06:43:27 10° S
Cosmos 1825 Rocket 3.7 06:35:15 10° N 06:39:43 81° E 06:44:10 10° S
SMAP 3.6 06:36:57 10° NNE 06:41:35 65° ESE 06:46:11 10° S
Cosmos 1943 Rocket 2.8 06:36:59 10° NNW 06:42:35 59° ENE 06:48:09 10° SSE
COSMO-SKYMED 1 3.6 06:40:39 10° SSW 06:44:16 26° W 06:47:54 10° NW
PSLV R/B 4.1 06:41:32 10° S 06:45:31 51° W 06:49:34 10° NNW
H-2A R/B 2.9 06:41:16 10° NNE 06:45:47 75° ESE 06:50:12 10° S
Cosmos 1634 Rocket 4.3 06:41:50 10° SSW 06:47:32 40° W 06:53:18 10° N
Cosmos 2298 Rocket 4.3 06:43:53 10° NNW 06:49:00 50° WSW 06:54:07 10° S
Meteor 2-10 Rocket 4.2 06:43:37 10° S 06:49:22 69° E 06:55:07 10° NNE
Cosmos 2228 3.5 06:46:15 10° SSW 06:50:10 36° W 06:54:05 10° NNW
Envisat 3.3 06:45:28 10° N 06:50:17 45° WNW 06:55:04 10° SW
CZ-4B R/B 4.3 06:48:32 10° NW 06:50:45 15° WNW 06:53:01 10° WSW
Cosmos 1125 Rocket 3.5 06:46:18 10° NNW 06:51:37 75° WSW 06:56:53 10° S
DMSP B5D1-3 4.5 06:47:18 10° S 06:52:23 75° WSW 06:57:29 10° NNW
ERBS 4.1 06:51:06 12° WNW 06:52:34 15° NW 06:54:32 10° N
Cosmos 2369 Rocket 3.6 06:48:01 10° N 06:53:14 39° ENE 06:58:24 10° SE
ERS-2 3.2 06:51:23 10° SSW 06:54:26 25° W 06:57:30 10° NW
CZ-3 Stage 3 -0.1 06:53:25 10° W 06:56:20 78° S 06:58:00 10° E
SL-16 R/B 3.6 06:53:29 10° W 06:57:02 17° WNW 07:00:37 10° NNW
CZ-2C R/B 1.3 06:53:36 10° WNW 06:57:50 85° NNE 07:01:52 10° ESE
Cosmos 1943 3.2 06:55:28 10° SSW 07:01:09 76° WNW 07:06:52 10° NNE
NOSS 3-2 (C) 4.5 06:59:58 10° W 07:04:10 21° NW 07:08:45 10° N
Cosmos 1953 Rocket 3.5 07:00:42 10° N 07:05:02 79° W 07:09:25 10° S
CZ-4B R/B 3.3 07:02:18 10° NNE 07:07:56 89° WNW 07:13:27 10° SSW
